Tracking 34138 objects as of 17-May-2026
HD Live streaming from Space Station
objects crossing your sky now

ONEWEB-0058

Track ONEWEB-0058 now!
10-day predictions
ONEWEB-0058 is classified as:


NORAD ID: 45161
Int'l Code: 2020-008AG
Perigee: 1,227.5 km
Apogee: 1,230.3 km
Inclination: 87.9 °
Period: 109.9 minutes
Semi major axis: 7599 km
RCS: Unknown
Launch date: February 6, 2020
Source: United Kingdom (UK)
Launch site: TYURATAM MISSILE AND SPACE COMPLEX (TTMTR)
Your satellite tracking list
Your tracking list is empty




NASA's NSSDC Master Catalog

Two Line Element Set (TLE):
1 45161U 20008AG  26136.67501970 -.00000299  00000-0 -89285-3 0  9997
2 45161  87.8853  42.5515 0001836  71.8261 288.3066 13.10370201304292
Source of the keplerian elements: AFSPC